Meteo Giornale » Osservazioni meteo Francia » Parigi-Orly

ore: 04:00 - Osservazioni Meteo Parigi-Orly
Lat. 48° 44' N Lon. 2° 24' E Alt. 89 metri s.l.m.

foschia Europe/Paris

-0 °C

Foschia

Temp. 24 Ore

-2 °C

1 °C

Sud

11.1 Km/h

Dew point -0 °C

Umidità 100 %

Visibilità  3 Km

Il sole sorge alle ore 08:26

Il sole tramonta alle ore 16:56

Data e Ora Cielo e Fenomeni T °C DP °C Um. % Pres. hPa Vis. km Vento km/h
Oggi h: 04:00 foschia Foschia -0 -0 100 1020 3 S 11.1
Oggi h: 03:30 foschia Foschia -0 -0 100 1020 1 S/SO 14.8
Oggi h: 03:00 nebbia Banco di Nebbia -0 -0 100 1020 0.9 S 13
Oggi h: 02:30 nebbia Banco di Nebbia -0 -0 100 1021 0.9 S 9.3
Oggi h: 01:30 nebbia Banco di Nebbia -1 -1 100 1021 0.9 S/SO 7.4
Oggi h: 01:00 nebbia Banco di Nebbia -1 -1 100 1022 0.8 S/SO 11.1
Oggi h: 00:30 nebbia Nebbia Congelantesi -1 -1 100 1022 0.65 S 11.1
Oggi h: 00:00 nebbia Banco di Nebbia -1 -1 100 1022 0.5 N 5.5
Ieri h: 23:30 nebbia Nebbia Congelantesi -1 -1 100 1022 0.4 S 7.4
Ieri h: 23:00 nebbia Nebbia Congelantesi -1 -1 100 1023 0.3 O/SO 7.4
Ieri h: 22:30 nebbia Nebbia Congelantesi -1 -1 100 1022 0.35 S/SO 9.3
Ieri h: 22:00 nebbia Nebbia Congelantesi -1 -1 100 1023 0.35 S/SO 13
Ieri h: 21:30 nebbia Nebbia Congelantesi -1 -1 100 1023 0.35 S 11.1
Ieri h: 21:00 nebbia Nebbia Congelantesi -1 -1 100 1023 0.35 S 11.1
Ieri h: 20:00 nebbia Nebbia Congelantesi -1 -1 100 1023 0.45 S/SO 11.1
Ieri h: 19:30 nebbia Nebbia Congelantesi -0 -1 92 1023 0.35 S 9.3
Ieri h: 19:00 nebbia Nebbia Congelantesi -0 -0 100 1023 0.4 S 9.3
Ieri h: 18:30 nebbia Nebbia Congelantesi -0 -0 100 1023 0.5 S 9.3
Ieri h: 18:00 nebbia Nebbia Congelantesi -0 -0 100 1023 0.6 S 7.4
Ieri h: 17:00 nebbia Nebbia Congelantesi -0 -0 100 1023 0.35 O/SO 9.3
Ieri h: 16:30 nebbia Nebbia Congelantesi -0 -0 100 1023 0.35 S 7.4
Ieri h: 16:00 nebbia Nebbia Congelantesi -0 -0 100 1023 0.25 SO 7.4
Ieri h: 15:30 nebbia Nebbia Congelantesi -1 -1 100 1023 0.3 O/SO 7.4
Ieri h: 15:00 nebbia Nebbia Congelantesi -1 -1 100 1023 0.25 N 5.5
Ieri h: 14:30 nebbia Nebbia Congelantesi -1 -1 100 1023 0.4 S 7.4
Ieri h: 13:30 nebbia Nebbia 0 0 100 1024 0.4 S 7.4
Ieri h: 13:00 nebbia Nebbia 0 0 100 1023 0.45 N 5.5
Ieri h: 12:30 nebbia Nebbia 1 1 100 1024 0.4 S 7.4
Ieri h: 12:00 nebbia Nebbia 1 1 100 1024 0.4 S 7.4
Ieri h: 11:30 nebbia Nebbia 1 1 100 1024 0.4 N 3.7
Ieri h: 11:00 nebbia Banco di Nebbia -0 -0 100 1025 0.4 N 5.5
Ieri h: 10:30 nebbia Banco di Nebbia -0 -0 100 1024 0.7 N 3.7
Ieri h: 10:00 foschia Foschia -1 -1 100 1024 1 O/NO 9.3
Ieri h: 09:00 nebbia Nebbia Congelantesi -1 -1 100 1023 0.35 N 5.5
Ieri h: 08:30 nebbia Banco di Nebbia -1 -1 100 1023 0.45 N 5.5
Ieri h: 08:00 nebbia Nebbia Congelantesi -1 -1 100 1023 0.35 N 3.7
Ieri h: 07:30 nebbia Nebbia Congelantesi -1 -1 100 1022 0.45 N 3.7
Ieri h: 07:00 nebbia Nebbia Congelantesi -1 -1 100 1022 0.45 N 3.7
Ieri h: 06:30 nebbia Nebbia Congelantesi -1 -1 100 1022 0.35 O/NO 11.1
Ieri h: 06:00 nebbia Nebbia Congelantesi -1 -1 100 1022 0.35 N 5.5
Ieri h: 05:30 nebbia Nebbia Congelantesi -1 -1 100 1022 0.25 NO 11.1
Ieri h: 05:00 nebbia Nebbia Congelantesi -2 -2 100 1022 0.2 N 3.7
Ieri h: 04:30 nebbia Nebbia Congelantesi -2 -2 100 1022 0.2 N 5.5
Ieri h: 04:00 nebbia Nebbia Congelantesi -2 -3 92 1022 0.15 N 5.5